User: anonymous   Login
Location: Unspecified
(0.0000°N, 0.0000°E)
Time: 20:00:22
(UTC+00:00)
Language:

ADEOS - Orbit

View from above orbital plane
View from above orbital plane
View from above satellite
View from above satellite

Ground track
Ground track

The orbit data is extracted from the following two-line orbital elements,

1 24277U 96046A   19046.86352771 -.00000023  00000-0  89961-5 0  9990
2 24277  98.8072  10.1647 0001520  35.7819 324.3464 14.29430448173172
Epoch (UTC): 15 February 2019 20:43:28
Eccentricity: 0.0001520
inclination: 98.8072°
perigee height: 792 km
apogee height: 795 km
right ascension of ascending node: 10.1647°
argument of perigee: 35.7819°
revolutions per day: 14.29430448
mean anomaly at epoch: 324.3464°
orbit number at epoch: 17317

The dashed part of the orbit path shows where the satellite is in the earth's shadow,  

DLR